• In Belarus
  • List of Countries
  • For 7 days
  • Water Temperature
  • Satellite Maps
  • Weather Map
  • Weather Widgets
  • user-avatar
    Login

    Hourly Weather Ebikon

    Today, 20 October, Friday

    Time Temperature Precipitation Wind Pressure Humidity
    00:00 +13°C° 0 mm 2 mps 720 mmHg 73%
    01:00 +13°C° 0 mm 1 mps 721 mmHg 75%
    02:00 +12°C° 0 mm 1 mps 721 mmHg 74%
    03:00 +12°C° 0 mm 1 mps 721 mmHg 74%
    04:00 +12°C° 0 mm 1 mps 721 mmHg 73%
    05:00 +12°C° 0 mm 1 mps 721 mmHg 72%
    06:00 +12°C° 0 mm 1 mps 721 mmHg 70%
    07:00 +12°C° 0 mm 1 mps 721 mmHg 69%
    08:00 +14°C° 0 mm 1 mps 721 mmHg 63%
    09:00 +16°C° 0 mm 1 mps 722 mmHg 57%
    10:00 +20°C° 0 mm 1 mps 722 mmHg 50%
    11:00 +20°C° 0 mm 1 mps 722 mmHg 50%
    12:00 +20°C° 0 mm 2 mps 722 mmHg 49%
    13:00 +20°C° 0 mm 2 mps 723 mmHg 48%
    14:00 +20°C° 0 mm 2 mps 722 mmHg 53%
    15:00 +20°C° 0 mm 1 mps 722 mmHg 59%
    16:00 +19°C° 0 mm 1 mps 722 mmHg 64%
    17:00 +18°C° 0 mm 1 mps 722 mmHg 70%
    18:00 +15°C° 0 mm 1 mps 722 mmHg 76%
    19:00 +13°C° 0 mm 1 mps 722 mmHg 83%
    20:00 +13°C° 0 mm 1 mps 723 mmHg 81%
    21:00 +13°C° 0 mm 1 mps 723 mmHg 79%
    22:00 +13°C° 0 mm 1 mps 723 mmHg 78%
    23:00 +13°C° 0 mm 1 mps 723 mmHg 76%

    Tomorrow, 21 October, Saturday

    Time Temperature Precipitation Wind Pressure Humidity
    00:00 +13°C° 0 mm 1 mps 723 mmHg 74%
    01:00 +13°C° 0 mm 1 mps 723 mmHg 73%
    02:00 +12°C° 0 mm 1 mps 723 mmHg 72%
    03:00 +12°C° 0 mm 1 mps 723 mmHg 71%
    04:00 +12°C° 0 mm 1 mps 723 mmHg 70%
    05:00 +12°C° 0 mm 1 mps 723 mmHg 69%
    06:00 +13°C° 0 mm 1 mps 723 mmHg 67%
    07:00 +13°C° 0 mm 1 mps 723 mmHg 66%
    08:00 +15°C° 0 mm 1 mps 723 mmHg 61%
    09:00 +18°C° 0 mm 1 mps 723 mmHg 57%
    10:00 +20°C° 0 mm 1 mps 723 mmHg 53%
    11:00 +21°C° 0 mm 1 mps 723 mmHg 51%
    12:00 +21°C° 0 mm 2 mps 722 mmHg 50%
    13:00 +23°C° 0 mm 2 mps 722 mmHg 49%
    14:00 +21°C° 0 mm 2 mps 722 mmHg 54%
    15:00 +20°C° 0 mm 2 mps 722 mmHg 60%
    16:00 +20°C° 0 mm 2 mps 722 mmHg 65%
    17:00 +18°C° 0.3 mm 2 mps 722 mmHg 74%
    18:00 +16°C° 0.3 mm 2 mps 722 mmHg 82%
    19:00 +14°C° 0.3 mm 2 mps 722 mmHg 91%
    20:00 +14°C° 1.3 mm 2 mps 723 mmHg 92%
    21:00 +13°C° 1.3 mm 2 mps 723 mmHg 93%
    22:00 +13°C° 1.3 mm 2 mps 723 mmHg 95%
    23:00 +12°C° 0.9 mm 2 mps 723 mmHg 94%

    Day after tomorrow, 22 October, Sunday

    Time Temperature Precipitation Wind Pressure Humidity
    00:00 +12°C° 0.9 mm 2 mps 723 mmHg 94%
    01:00 +12°C° 0.9 mm 2 mps 723 mmHg 93%
    02:00 +10°C° 0.5 mm 2 mps 723 mmHg 94%
    03:00 +11°C° 0.5 mm 1 mps 723 mmHg 94%
    04:00 +11°C° 0.5 mm 1 mps 722 mmHg 94%
    05:00 +10°C° 0.4 mm 2 mps 722 mmHg 94%
    06:00 +9°C° 0.4 mm 2 mps 722 mmHg 94%
    07:00 +9°C° 0.4 mm 2 mps 722 mmHg 94%
    08:00 +9°C° 0.5 mm 2 mps 722 mmHg 91%
    09:00 +9°C° 0.5 mm 3 mps 722 mmHg 88%
    10:00 +10°C° 0.5 mm 3 mps 722 mmHg 85%
    11:00 +10°C° 0.3 mm 3 mps 722 mmHg 83%
    12:00 +10°C° 0.3 mm 3 mps 722 mmHg 80%
    13:00 +10°C° 0.3 mm 3 mps 722 mmHg 78%
    14:00 +10°C° 0.4 mm 3 mps 721 mmHg 80%
    15:00 +10°C° 0.4 mm 3 mps 721 mmHg 82%
    16:00 +9°C° 0.4 mm 3 mps 721 mmHg 84%
    17:00 +8°C° 0.4 mm 3 mps 722 mmHg 86%
    18:00 +8°C° 0.4 mm 3 mps 722 mmHg 88%
    19:00 +7°C° 0.4 mm 3 mps 723 mmHg 90%
    20:00 +7°C° 0.4 mm 3 mps 723 mmHg 91%
    21:00 +7°C° 0.4 mm 3 mps 723 mmHg 91%
    22:00 +5°C° 0.4 mm 3 mps 724 mmHg 92%
    23:00 +5°C° 0.5 mm 3 mps 724 mmHg 92%

    23 October, Monday

    Time Temperature Precipitation Wind Pressure Humidity
    00:00 +5°C° 0.5 mm 3 mps 724 mmHg 92%
    01:00 +5°C° 0.5 mm 3 mps 724 mmHg 92%
    02:00 +5°C° 1.1 mm 3 mps 724 mmHg 92%
    03:00 +5°C° 1.1 mm 3 mps 723 mmHg 92%
    04:00 +5°C° 1.1 mm 3 mps 723 mmHg 92%
    05:00 +5°C° 1.4 mm 3 mps 723 mmHg 93%
    06:00 +5°C° 1.4 mm 3 mps 723 mmHg 93%
    07:00 +6°C° 1.4 mm 2 mps 723 mmHg 94%
    08:00 +7°C° 1.2 mm 3 mps 724 mmHg 94%
    09:00 +7°C° 1.2 mm 3 mps 724 mmHg 93%
    10:00 +8°C° 1.2 mm 3 mps 724 mmHg 93%
    11:00 +8°C° 0.8 mm 3 mps 724 mmHg 92%
    12:00 +9°C° 0.8 mm 3 mps 724 mmHg 91%
    13:00 +9°C° 0.8 mm 3 mps 724 mmHg 91%
    14:00 +9°C° 0.6 mm 3 mps 724 mmHg 91%
    15:00 +9°C° 0.6 mm 2 mps 724 mmHg 92%
    16:00 +9°C° 0.6 mm 2 mps 724 mmHg 92%
    17:00 +9°C° 0.4 mm 2 mps 725 mmHg 93%
    18:00 +8°C° 0.4 mm 2 mps 725 mmHg 94%
    19:00 +8°C° 0.4 mm 2 mps 725 mmHg 94%
    20:00 +8°C° 0.4 mm 2 mps 725 mmHg 94%
    21:00 +8°C° 0.4 mm 2 mps 725 mmHg 94%
    22:00 +8°C° 0.4 mm 2 mps 725 mmHg 94%
    23:00 +8°C° 0.7 mm 2 mps 725 mmHg 93%

    24 October, Tuesday

    Time Temperature Precipitation Wind Pressure Humidity
    00:00 +8°C° 0.7 mm 2 mps 725 mmHg 93%
    01:00 +8°C° 0.7 mm 2 mps 725 mmHg 93%
    02:00 +8°C° 0.5 mm 2 mps 725 mmHg 93%
    03:00 +8°C° 0.5 mm 2 mps 725 mmHg 93%
    04:00 +9°C° 0.5 mm 2 mps 725 mmHg 93%
    05:00 +9°C° 0.5 mm 2 mps 725 mmHg 93%
    06:00 +9°C° 0.5 mm 2 mps 725 mmHg 94%
    07:00 +9°C° 0.5 mm 2 mps 725 mmHg 94%
    08:00 +10°C° 0.3 mm 2 mps 725 mmHg 93%
    09:00 +12°C° 0.3 mm 2 mps 725 mmHg 93%
    10:00 +13°C° 0.3 mm 2 mps 725 mmHg 92%
    11:00 +13°C° 0.7 mm 2 mps 725 mmHg 92%
    12:00 +13°C° 0.7 mm 2 mps 725 mmHg 93%
    13:00 +13°C° 0.7 mm 2 mps 725 mmHg 93%
    14:00 +13°C° 0.2 mm 2 mps 725 mmHg 93%
    15:00 +14°C° 0.2 mm 2 mps 726 mmHg 93%
    16:00 +14°C° 0.2 mm 2 mps 726 mmHg 93%
    17:00 +13°C° 0 mm 2 mps 726 mmHg 94%
    18:00 +13°C° 0 mm 1 mps 726 mmHg 94%
    19:00 +12°C° 0 mm 1 mps 727 mmHg 94%
    20:00 +12°C° 0 mm 1 mps 727 mmHg 94%
    21:00 +11°C° 0 mm 1 mps 727 mmHg 94%
    22:00 +11°C° 0 mm 1 mps 727 mmHg 93%
    23:00 +11°C° 0 mm 1 mps 727 mmHg 92%

    25 October, Wednesday

    Time Temperature Precipitation Wind Pressure Humidity
    00:00 +11°C° 0 mm 1 mps 727 mmHg 92%
    01:00 +10°C° 0 mm 1 mps 727 mmHg 91%
    02:00 +10°C° 0 mm 1 mps 727 mmHg 89%
    03:00 +10°C° 0 mm 1 mps 727 mmHg 88%
    04:00 +10°C° 0 mm 1 mps 727 mmHg 87%
    05:00 +10°C° 0 mm 1 mps 727 mmHg 86%
    06:00 +10°C° 0 mm 1 mps 727 mmHg 84%
    07:00 +10°C° 0 mm 1 mps 727 mmHg 83%
    08:00 +12°C° 0 mm 1 mps 727 mmHg 82%
    09:00 +13°C° 0 mm 1 mps 728 mmHg 81%
    10:00 +15°C° 0 mm 1 mps 728 mmHg 80%
    11:00 +16°C° 0 mm 1 mps 728 mmHg 78%
    12:00 +18°C° 0 mm 1 mps 727 mmHg 76%
    13:00 +19°C° 0 mm 1 mps 727 mmHg 73%
    14:00 +19°C° 0 mm 1 mps 727 mmHg 75%
    15:00 +19°C° 0 mm 1 mps 727 mmHg 78%
    16:00 +18°C° 0 mm 1 mps 727 mmHg 80%
    17:00 +16°C° 0 mm 1 mps 727 mmHg 81%
    18:00 +14°C° 0 mm 1 mps 727 mmHg 82%
    19:00 +13°C° 0 mm 1 mps 727 mmHg 84%
    20:00 +12°C° 0 mm 1 mps 728 mmHg 82%
    21:00 +12°C° 0 mm 1 mps 728 mmHg 81%
    22:00 +12°C° 0 mm 1 mps 728 mmHg 79%
    23:00 +12°C° 0 mm 1 mps 728 mmHg 78%
    Show more